Regional Weather Roundup
Issued by NWS

Home | Current Version | Previous Version | Graphics & Text | Print | Product List | Glossary On
Versions: 1 2 3 4 5 6 7 8 9 10 11 12 13 14 15 16 17 18 19 20 21 22 23 24 25 26 27 28 29 30 31 32 33 34 35 36 37 38 39 40 41 42 43 44 45 46 47 48 49 50
000
ASUS45 KTFX 300019
RWRMT
MONTANA HOURLY WEATHER ROUNDUP
NATIONAL WEATHER SERVICE GREAT FALLS MT
619 PM MDT SUN MAR 29 2015

NOTE: "FAIR" INDICATES FEW OR NO CLOUDS BELOW 12000 FEET WITH NO
SIGNIFICANT WEATHER AND/OR OBSTRUCTIONS TO VISIBILITY.

* THESE STATIONS ARE NOT UNDER NWS QUALITY CONTROL. THEY DO NOT
   REPORT WEATHER SUCH AS PRECIPITATION OR FOG.

MTZ001>007-043-300100-
WEST OF THE DIVIDE
CITY           SKY/WX    TMP DP  RH WIND       PRES   REMARKS
KALISPELL      CLOUDY    55  32  42 SW12      30.10F
MISSOULA       MOCLDY    55  32  42 W10       30.17F
BUTTE          CLEAR     55  25  31 NW20G28   30.14S
MULLAN PASS    CLOUDY    39  32  76 VRB6      30.18F WCI  35
* ESSEX        N/A       52  30  43 E1G9       N/A
* EUREKA APT   MOCLDY    55  34  45 SE6        N/A
* HAMILTON APT CLEAR     59  28  31 W7        30.18S
* LIBBY APT    CLOUDY    55  34  45 CALM      30.13S
* LINCOLN      N/A       55  30  39 SW11G28    N/A
* LOOKOUT PASS N/A       48  34  59 SE4G14     N/A
* POLSON       N/A       54  33  45 S3G9       N/A
* SEELEY LAKE  N/A       55  31  40 W8G19      N/A
* THOMP F APT  MOCLDY    52  14  22 S10G19     N/A
$$

MTZ008-052>055-300100-
SOUTHWEST MONTANA
CITY           SKY/WX    TMP DP  RH WIND       PRES   REMARKS
BOZEMAN        FAIR      61  23  23 N9        30.09F
DILLON         FAIR      61  19  20 W21G29    30.13R
* W YELLOWSTON CLEAR     50  17  27 SW7G14     N/A
* BOULDER HILL N/A       54  21  27 S8G23      N/A
* HOMESTAKE PS N/A       51  19  28 NW15G28    N/A
* MONIDA PASS  N/A       50  13  23 S15G22     N/A
* RAYNOLDS PAS N/A       51  37  59 S13        N/A
* WHITEHALL    N/A       65  19  17 W15G22     N/A
* WISE RIVER   N/A       56  22  27 W15G31     N/A
$$

MTZ009>010-012-014-046-048-049-054-300100-
EAST SLOPES AND CENTRAL MONTANA
CITY           SKY/WX    TMP DP  RH WIND       PRES   REMARKS
CUT BANK       CLOUDY    54  28  37 SW21G29   29.98R
GREAT FALLS    MOCLDY    57  27  32 SW18G24   30.01S
HELENA         PTCLDY    63  27  26 W21G28    30.08S
MALMSTROM AFB  MOCLDY    59  27  29 SW20G32   30.01F
* CONRAD       CLOUDY    55  30  39 SW16G21    N/A
* DEARBORN     N/A       59  28  31 S29G37     N/A
* EAST GLACIER N/A       47  27  46 NW17G29    N/A
* MONARCH      N/A       53  18  25 W16G24     N/A
* PENDROY      N/A       52  28  40 W17        N/A
* ROGERS PASS  N/A       47  26  44 SE15G29    N/A
* SAINT MARY   N/A       48  29  48 S12G27     N/A
* WHITE SULPH  N/A       52  17  25 W7G12      N/A
$$

MTZ011-013-016-021-035-040-045-047-050-051-300100-
NORTH CENTRAL MONTANA
CITY           SKY/WX    TMP DP  RH WIND       PRES   REMARKS
HAVRE          PTCLDY    63  30  29 W24       29.91F
LEWISTOWN      CLEAR     59  27  29 NW21      30.00F
* N BAR RANCH  CLEAR     57  23  27 NW15G25   30.02F
* CHINOOK      CLEAR     63  28  27 W24G29    29.90F
* FORT BENTON  MOCLDY    61  27  27 SW20G28   29.98S
* CHESTER      N/A       58  27  31 W20G33     N/A
* DENTON       N/A       59  22  24 W24G32     N/A
* GEYSER       N/A       57  18  22 SW24G30    N/A
* JUDITH GAP   N/A       60  20  21 W18G27     N/A
* LOMA         N/A       62  26  25 SW14G22    N/A
$$

MTZ017>020-022>027-061-062-300100-
NORTHEAST MONTANA
CITY           SKY/WX    TMP DP  RH WIND       PRES   REMARKS
GLASGOW        CLOUDY    63  30  29 W18       29.92F
GLENDIVE       MOCLDY    57  30  36 W8        29.97F
JORDAN         MOCLDY    63  28  27 W14       29.97F
SIDNEY         MOCLDY    59  28  31 W14       29.95F
WOLF POINT     CLOUDY    64  32  30 W17G25    29.94F
* BEAVER HILL  N/A       58  29  33 W15G21     N/A
* CIRCLE       N/A       59  35  41 W10G15     N/A
* LINDSAY DVD  N/A       57  30  36 W11G19     N/A
* NAVAJO       N/A       58  32  37 W18G27     N/A
* PLENTYWOOD A MOCLDY    59  30  33 W21G29    29.89F
* POPLAR APT   CLOUDY    59  34  39 W15       29.94F
* SACO         N/A       60  31  33 SW16G24    N/A
$$

MTZ028>042-056>058-300100-
SOUTHCENTRAL AND SOUTHEAST MONTANA
CITY           SKY/WX    TMP DP  RH WIND       PRES   REMARKS
BAKER          MOCLDY    59  28  31 W20       30.01F
BILLINGS       PTCLDY    63  18  17 SW9       30.02S
LIVINGSTON     MOCLDY    63  18  17 W25G32    30.05S
MILES CITY     MOCLDY    63  25  24 W15G21    29.99F
* BIG TIMBER A CLEAR     61  18  19 W20G31    30.04F
* FORSYTH APT  CLOUDY    61  25  25 W8        30.00F
* ALZADA       N/A       60  27  28 SW10       N/A
* HYSHAM       N/A       59  18  20 NW12G19    N/A
* LAME DEER    N/A       55  18  23 W10        N/A
* REED POINT   N/A       64  24  22 W17G23     N/A
* ROSCOE HILL  N/A       58  12  16 NE13       N/A
$$

REGIONAL REPORTS...DAKOTAS
CITY           SKY/WX    TMP DP  RH WIND       PRES   REMARKS
WILLISTON      PTCLDY    59  34  39 W13G22    29.93F
DICKINSON      CLEAR     55  27  34 W12       29.96F
BEACH          CLEAR     57  28  33 W12G22    29.99S
CROSBY         FAIR      57  30  36 W10       29.91F
TIOGA          MOCLDY    55  28  35 W14       29.95F
WATFORD CITY   FAIR      57  32  39 W16       29.93F
BISMARCK       CLEAR     59  28  31 NW20G29   29.97S
GRAND FORKS    MOCLDY    52  28  40 W10       29.88S
FARGO          CLOUDY    54  27  35 NW17      29.91S
BUFFALO SD     PTCLDY    59  27  29 W22       29.97F
RAPID CITY     CLOUDY    61  27  27 N6        30.06F
$$

REGIONAL REPORTS...WYOMING/IDAHO/WASHINGTON
CITY           SKY/WX    TMP DP  RH WIND       PRES   REMARKS
GILLETTE       MOCLDY    57  23  27 N13       30.07F
SHERIDAN       MOCLDY    57  28  33 CALM      30.06F
CODY           MOCLDY    61  14  16 W17G25    30.08S
YELLOWSTONE LA MOCLDY    45   9  23 W6        30.25F
SALMON         CLEAR     61  21  21 N5        30.13S
MULLAN PASS    CLOUDY    39  32  76 VRB6      30.18S WCI  35
SAND POINT     CLOUDY    55  39  55 CALM      30.14F
SPOKANE        CLOUDY    57  36  46 SW14      30.14F
$$

REGIONAL REPORTS...ALBERTA
CITY           SKY/WX    TMP DP  RH WIND       PRES   REMARKS
CALGARY        PTCLDY    59  27  29 NW17G24   29.83R
LETHBRIDGE     MOCLDY    57  32  39 W29G41    29.91R
MEDICINE HAT   MOCLDY    63  32  31 W30G40    29.82S
EDMONTON       MOCLDY    55  36  49 W5        29.75R
WATERTON GATE  N/A       54  28  37 SW10G24    N/A
CARDSTON       N/A       55  32  42 W16G25     N/A
$$

REGIONAL REPORTS...SASKATCHEWAN
CITY           SKY/WX    TMP DP  RH WIND       PRES   REMARKS
SWIFT CURRENT  PTCLDY    59  30  33 W13G21    29.82F
REGINA         MOCLDY    54  36  51 VRB2      29.87F
VAL MARIE      N/A       61  28  29 W18        N/A
ASSINIBOIA     N/A       57  34  42 W13G18     N/A
CORONACH       N/A       59  32  36 W20G29     N/A

$$



USA.gov is the U.S. government's official web portal to all federal, state and local government web resources and services.